Weather Roundup
Issued by NWS

Home | Current Version | Previous Version | Graphics & Text | Print | Product List | Glossary Off
Versions: 1 2 3 4 5 6 7 8 9 10 11 12 13 14 15 16 17 18 19 20 21 22 23 24 25 26 27 28 29 30 31 32 33 34 35 36 37 38 39 40 41 42 43 44 45 46 47 48 49 50

000
NZUS93 KARX 310710
HRRWXR

CURRENT HOURLY OBSERVATIONS ACROSS
MUCH OF THE UPPER MISSISSIPPI VALLEY
NATIONAL WEATHER SERVICE LA CROSSE WI
200 AM CDT FRI JUL 31 2015


...SOUTHEAST MINNESOTA...


CITY           SKY/WX    TMP DP  RH WIND       PRES   REMARKS
ROCHESTER      CLEAR     65  61  87 W9        30.06S
ROCHESTER/MAYO FAIR      69  60  73 W7        30.05S
WINONA         CLEAR     68  63  83 CALM      30.02S
AUSTIN         CLEAR     72  63  73 W10       30.06S
ALBERT LEA     CLEAR     70  63  78 W5        30.08S
DODGE CENTER   CLEAR     63  59  88 W3        30.07R
PRESTON        CLEAR     67  60  79 W9        30.06R
OWATONNA       CLEAR     63  59  88 CALM      30.07S
FARIBAULT      CLEAR     63  61  94 W5        30.06S
$$

...ELSEWHERE IN MINNESOTA...


CITY           SKY/WX    TMP DP  RH WIND       PRES   REMARKS
MINNEAPOLIS    CLEAR     72  59  63 W7        30.02S
INTNL FALLS    PTCLDY    58  56  93 W7        29.90R
DULUTH         MOCLDY    66  54  65 W9        29.93R
RED WING       CLEAR     63  61  94 CALM      30.01S
REDWOOD FALLS  CLEAR     67  60  78 W8        30.08S
MANKATO        CLEAR     66  59  77 W6        30.07S
WORTHINGTON    CLEAR     64  55  72 NW5       30.14S
FAIRMONT       CLEAR     70  57  64 NW7       30.10R
$$

...SOUTHWEST WISCONSIN...


CITY           SKY/WX    TMP DP  RH WIND       PRES   REMARKS
LA CROSSE      PTCLDY    68  61  78 SE5       30.01R
PRAIRIE DU CHI CLEAR     63  59  87 E5        30.03F
BOSCOBEL       CLEAR     61  59  93 CALM      30.03F
LONE ROCK      PTCLDY    60  57  89 CALM      30.03F
PLATTEVILLE    CLEAR     63  60  89 S5        30.06S
FORT MC COY    CLEAR     58  56  91 CALM      30.02S
CAMP DOUGLAS   CLEAR     66  62  86 W6        29.99F
VIROQUA        FAIR      62  59  88 SW3       30.04S
WIS DELLS      PTCLDY    67  56  67 SW6       30.02S
$$

...ELSEWHERE IN WISCONSIN...


CITY           SKY/WX    TMP DP  RH WIND       PRES   REMARKS
MILWAUKEE      CLEAR     73  55  53 W6        29.99F
MADISON        CLEAR     70  57  63 VRB5      30.02S
GREEN BAY      CLEAR     66  57  72 SW5       29.93F
EAU CLAIRE     CLEAR     63  57  81 W5        29.98F
BLACK RVR FLS  PTSUNNY   61  61  99 S3        30.00S
MEDFORD        CLEAR     62  57  81 W5        29.99S
WAUSAU         CLEAR     67  57  70 NW10      29.95F
WIS RAPIDS     CLEAR     67  57  70 W8        29.99F
MARSHFIELD     CLEAR     64  56  75 W6        29.99S
RICE LAKE      CLEAR     63  57  81 W6        30.00S
$$

...NORTHEAST IOWA...


CITY           SKY/WX    TMP DP  RH WIND       PRES   REMARKS
DECORAH        PTCLDY    68  63  83 VRB5      30.04S
MASON CITY     CLEAR     71  66  84 W9        30.09S
CHARLES CITY   PTCLDY    66  66 100 SW5       30.07F
OELWEIN          N/A     66  64  94 SW7       30.08F
$$

...ELSEWHERE IN IOWA...


CITY           SKY/WX    TMP DP  RH WIND       PRES   REMARKS
DES MOINES     PTCLDY    71  65  81 W3        30.12S
IOWA CITY      CLEAR     68  64  87 W5        30.10S
FORT DODGE     CLEAR     64  61  88 SW5       30.12S
$$

...NORTHERN ILLINOIS...


CITY           SKY/WX    TMP DP  RH WIND       PRES   REMARKS
CHICAGO-OHARE  FAIR      72  58  61 W10       30.03R
CHICAGO-MIDWAY CLEAR     75  57  53 W8        30.03R
MOLINE         CLEAR     68  64  87 SW3       30.08S
ROCKFORD       CLEAR     67  58  72 SW3       30.06S
PEORIA         CLEAR     72  64  76 W3        30.09S
$$

NOTE: "FAIR" INDICATES FEW OR NO CLOUDS BELOW 12,000 FEET WITH NO
SIGNIFICANT WEATHER AND/OR OBSTRUCTIONS TO VISIBILITY. WIND
SPEEDS ARE IN MILES-PER-HOUR.



USA.gov is the U.S. government's official web portal to all federal, state and local government web resources and services.